TimeMDT,TemperatureF,Dew PointF,Humidity,Sea Level PressureIn,VisibilityMPH,Wind Direction,Wind SpeedMPH,Gust SpeedMPH,PrecipitationIn,Events,Conditions,WindDirDegrees,DateUTC
12:53 AM,46.0,32.0,58,29.92,10.0,Calm,Calm,-,N/A,,Clear,0,2012-10-29 06:53:00
1:53 AM,48.0,32.0,54,29.92,10.0,North,3.5,-,N/A,,Clear,10,2012-10-29 07:53:00
2:53 AM,46.0,33.1,61,29.91,10.0,South,4.6,-,N/A,,Clear,190,2012-10-29 08:53:00
3:53 AM,44.1,34.0,68,29.92,10.0,NW,3.5,-,N/A,,Mostly Cloudy,310,2012-10-29 09:53:00
4:53 AM,46.0,36.0,68,29.93,10.0,Calm,Calm,-,0.00,Rain,Light Rain,0,2012-10-29 10:53:00
5:53 AM,45.0,36.0,71,29.94,10.0,South,5.8,-,0.00,Rain,Light Rain,180,2012-10-29 11:53:00
6:53 AM,45.0,37.0,74,29.92,10.0,ENE,4.6,-,0.00,Rain,Light Rain,60,2012-10-29 12:53:00
7:53 AM,44.1,36.0,73,29.93,10.0,SW,9.2,-,0.00,,Mostly Cloudy,220,2012-10-29 13:53:00
8:53 AM,48.0,37.0,66,29.93,10.0,WSW,8.1,-,N/A,,Mostly Cloudy,240,2012-10-29 14:53:00
9:53 AM,51.1,39.9,66,29.93,10.0,Calm,Calm,-,N/A,,Scattered Clouds,0,2012-10-29 15:53:00
10:53 AM,50.0,41.0,71,29.93,10.0,Calm,Calm,-,0.00,,Overcast,0,2012-10-29 16:53:00
11:53 AM,50.0,44.1,80,29.95,10.0,Calm,Calm,-,0.02,Rain,Light Rain,0,2012-10-29 17:53:00
12:53 PM,51.1,46.0,83,29.94,10.0,Calm,Calm,-,0.00,,Overcast,0,2012-10-29 18:53:00
1:53 PM,50.0,44.6,82,29.93,10.0,SSW,8.1,-,N/A,,Mostly Cloudy,200,2012-10-29 19:53:00
2:53 PM,55.9,43.0,62,29.90,10.0,SSW,11.5,-,N/A,,Scattered Clouds,200,2012-10-29 20:53:00
3:53 PM,60.1,43.0,53,29.89,10.0,SSW,8.1,-,N/A,,Scattered Clouds,200,2012-10-29 21:53:00
4:53 PM,61.0,43.0,52,29.88,10.0,South,4.6,-,N/A,,Scattered Clouds,180,2012-10-29 22:53:00
5:53 PM,59.0,39.9,49,29.90,10.0,West,4.6,-,N/A,,Scattered Clouds,260,2012-10-29 23:53:00
6:53 PM,59.0,39.0,48,29.91,10.0,West,13.8,-,N/A,,Scattered Clouds,280,2012-10-30 00:53:00
7:53 PM,55.9,43.0,62,29.94,10.0,Calm,Calm,-,N/A,,Scattered Clouds,0,2012-10-30 01:53:00
8:53 PM,57.9,39.0,49,29.95,10.0,WNW,4.6,-,N/A,,Scattered Clouds,290,2012-10-30 02:53:00
9:53 PM,53.1,39.0,59,29.96,10.0,West,13.8,-,N/A,,Partly Cloudy,280,2012-10-30 03:53:00
10:53 PM,51.1,39.0,63,29.98,10.0,SW,8.1,-,N/A,,Scattered Clouds,230,2012-10-30 04:53:00
11:53 PM,51.1,37.9,61,30.00,10.0,Calm,Calm,-,N/A,,Partly Cloudy,0,2012-10-30 05:53:00